Flag for Germany Weather past 2 weeks in Vaihingen an der Enz, Baden-Württemberg, Germany

Now
63 °F

Sunny.


Feels Like: 63 °F
Forecast: 44 / 63 °F
Wind: 5 mph from Southwest

Location: Stuttgart-Echterdingen

Current Time: Oct 20, 2014 at 10:48:26 AM

Latest Report: Oct 20, 2014 at 10:20 AM


Visibility: 10 mi

Pressure: 30.12 "Hg

Humidity: 83%

Dew point: 57 °F

Location of Vaihingen an der EnzLocation

Historic Weather in Vaihingen an der Enz — Graph

°F

Vaihingen an der Enz temperature yesterday

Maximum temperature yesterday: 75 °F (at 3:20 PM)
Minimum temperature yesterday: 46 °F (at 5:50 AM)
Average temperature yesterday: 60 °F

Past Weeks' High & Low Weather Summary

 TemperatureHumidityPressure
High79 °F (Oct 9, 2:20 PM)100% (Oct 5, 9:20 AM)30.21 "Hg (Oct 5, 9:20 AM)
Low43 °F (Oct 18, 7:50 AM)32% (Oct 9, 3:50 PM)29.77 "Hg (Oct 7, 7:50 AM)
Average58 °F86%29.93 "Hg
* Reported Oct 5 9:20 AM — Oct 20 9:50 AM, Vaihingen an der Enz, Weather by CustomWeather, © 2014

Note: Actual official high and low records may vary slightly from our data, if they occured in-between our weather recording intervals... More about our weather records

Advertising

Vaihingen an der Enz weather history for previous 24 hours

 ConditionsComfort  
Time TempWeatherWind HumidityBarometerVisibility
9:50 AM
Oct 20
63 °FSunny.5 mph83%30.12 "Hg10 mi
9:20 AM63 °FSunny.3 mph83%30.12 "Hg10 mi
8:50 AM61 °FSunny.3 mph88%30.12 "Hg10 mi
8:20 AM59 °FClear.5 mph88%30.12 "Hg10 mi
7:50 AM59 °FClear.3 mph88%30.12 "Hg10 mi
7:20 AM59 °FClear.3 mph88%30.12 "Hg10 mi
6:50 AM57 °FClear.6 mph88%30.12 "Hg10 mi
5:20 AM59 °FClear.3 mph88%30.12 "Hg10 mi
4:50 AM59 °FClear.3 mph88%30.12 "Hg10 mi
4:20 AM57 °FClear.3 mph88%30.15 "Hg10 mi
3:50 AM61 °FClear.5 mph83%30.15 "Hg10 mi
3:20 AM61 °FClear.7 mph77%30.15 "Hg10 mi
2:50 AM61 °FClear.3 mph77%30.15 "Hg10 mi
2:20 AM59 °FClear.3 mph82%30.15 "Hg10 mi
1:50 AM57 °FClear.6 mph88%30.15 "Hg10 mi
1:20 AM57 °FClear.5 mph82%30.15 "Hg10 mi
12:50 AM59 °FClear.3 mph82%30.15 "Hg10 mi
12:20 AM63 °FClear.5 mph73%30.15 "Hg10 mi
11:50 PM
Oct 19
64 °FClear.5 mph68%30.15 "Hg10 mi
11:20 PM63 °FClear.5 mph73%30.15 "Hg10 mi
10:50 PM63 °FClear.3 mph68%30.15 "Hg10 mi
10:20 PM64 °FClear.5 mph64%30.15 "Hg10 mi
9:50 PM64 °FClear.6 mph68%30.15 "Hg10 mi
9:20 PM64 °FClear.6 mph68%30.15 "Hg10 mi
8:50 PM64 °FClear.6 mph68%30.15 "Hg10 mi
8:20 PM66 °FClear.6 mph64%30.15 "Hg10 mi
7:50 PM63 °FClear.3 mph73%30.15 "Hg10 mi
7:20 PM64 °FSunny.5 mph68%30.12 "Hg10 mi
6:50 PM68 °FSunny.3 mph60%30.12 "Hg10 mi
6:20 PM70 °FSunny.5 mph57%30.12 "Hg10 mi
5:50 PM70 °FSunny.5 mph60%30.12 "Hg10 mi
5:20 PM72 °FSunny.5 mph57%30.12 "Hg10 mi
4:50 PM73 °FSunny.8 mph53%30.12 "Hg10 mi
4:20 PM73 °FSunny.8 mph53%30.12 "Hg10 mi
3:50 PM75 °FSunny.7 mph50%30.12 "Hg10 mi
3:20 PM75 °FSunny.8 mph54%30.12 "Hg10 mi
2:50 PM73 °FSunny.9 mph53%30.15 "Hg10 mi
2:20 PM73 °FPassing clouds.10 mph53%30.15 "HgN/A
1:50 PM73 °FPassing clouds.7 mph53%30.15 "HgN/A
1:20 PM72 °FSunny.8 mph57%30.15 "Hg10 mi
12:50 PM72 °FSunny.5 mph65%30.15 "Hg10 mi
12:20 PM70 °FSunny.2 mph64%30.18 "Hg10 mi
11:50 AM66 °FSunny.3 mph78%30.18 "Hg10 mi
11:20 AM61 °FSunny.2 mph88%30.18 "Hg10 mi
10:50 AM59 °FSunny.3 mph88%30.18 "Hg10 mi
10:20 AM57 °FSunny.2 mph82%30.18 "Hg10 mi
Weather by CustomWeather, © 2014

See weather overviewHow to use our weather pages